GW3985 Weather Reports


Display with metric or nautical units.
time (UTC)temp
F
wind
direction
speed
MPH
gust
MPH
rain 1hr
in
rain 24hr
in
rain mn
in
humidity
%
barometer
mb
20260504130516 50 131 1.0 2.0 0.00 0.00 0.00 44 1014.3
20260504110536 48 135 1.0 4.0 0.00 0.00 0.00 48 1014.3
20260504100536 48 134 1.0 3.0 0.00 0.00 0.00 49 1014.6
20260504081517 49 0.0 0.0 0.00 0.00 0.00 49 1015.5
20260504080515 48 129 0.0 1.0 0.00 0.00 0.00 51 1015.5
20260504050516 55 134 1.0 2.0 0.00 0.00 0.00 41 1016.1
20260504045517 55 126 0.0 2.0 0.00 0.00 0.00 41 1016.2
20260504044515 56 125 0.0 1.0 0.00 0.00 0.00 41 1016.4
20260504043515 56 128 0.0 1.0 0.00 0.00 0.00 41 1016.5
20260504042515 57 133 1.0 3.0 0.00 0.00 0.00 40 1016.5
20260504041516 57 133 2.0 3.0 0.00 0.00 0.00 39 1016.5
20260504040516 57 133 1.0 2.0 0.00 0.00 0.00 39 1016.6
20260504035516 57 136 1.0 2.0 0.00 0.00 0.00 40 1016.8
20260504034517 58 140 0.0 2.0 0.00 0.00 0.00 40 1016.7
20260504033514 58 65 0.0 1.0 0.00 0.00 0.00 38 1016.6
20260504032515 58 0.0 0.0 0.00 0.00 0.00 37 1016.7
20260504031515 59 0.0 0.0 0.00 0.00 0.00 36 1016.7
20260504030536 59 0.0 0.0 0.00 0.00 0.00 35 1016.6
20260504025516 59 0.0 0.0 0.00 0.00 0.00 35 1016.6
20260504024517 60 0.0 0.0 0.00 0.00 0.00 34 1016.5
20260504023517 60 0.0 0.0 0.00 0.00 0.00 33 1016.5
20260504022515 60 0.0 0.0 0.00 0.00 0.00 33 1016.6
20260504021515 61 48 0.0 1.0 0.00 0.00 0.00 32 1016.5
20260504020535 61 50 0.0 1.0 0.00 0.00 0.00 32 1016.5
20260504015516 62 0.0 0.0 0.00 0.00 0.00 31 1016.3
20260504014516 63 0.0 0.0 0.00 0.00 0.00 30 1016.3
20260504013537 63 0.0 0.0 0.00 0.00 0.00 30 1016.3
20260504012537 63 278 0.0 2.0 0.00 0.00 0.00 29 1016.3
20260504011555 64 290 0.0 2.0 0.00 0.00 0.00 29 1016.2
20260504010515 65 50 0.0 4.0 0.00 0.00 0.00 28 1016.2
20260504005516 65 2 1.0 4.0 0.00 0.00 0.00 27 1016.2
20260504004516 66 17 0.0 3.0 0.00 0.00 0.00 27 1016.1
20260504003516 66 92 0.0 3.0 0.00 0.00 0.00 27 1016.1
20260504002517 67 1 1.0 3.0 0.00 0.00 0.00 26 1016.1
20260504001517 68 39 0.0 2.0 0.00 0.00 0.00 25 1016.0
20260504000515 69 32 1.0 5.0 0.00 0.00 0.00 23 1015.9
20260503235515 70 352 0.0 2.0 0.00 0.00 0.00 21 1016.0
20260503234536 70 50 1.0 3.0 0.00 0.00 0.00 21 1016.1
20260503233536 70 46 0.0 3.0 0.00 0.00 0.00 21 1016.1
20260503232516 71 337 1.0 3.0 0.00 0.00 0.00 20 1016.0
20260503231517 72 355 1.0 4.0 0.00 0.00 0.00 19 1016.0
20260503230514 73 11 0.0 2.0 0.00 0.00 0.00 18 1016.0
20260503225515 73 5 1.0 3.0 0.00 0.00 0.00 18 1016.0
20260503224535 73 343 1.0 3.0 0.00 0.00 0.00 18 1016.0
20260503223516 73 50 0.0 2.0 0.00 0.00 0.00 18 1016.1
20260503222516 73 215 0.0 3.0 0.00 0.00 0.00 18 1016.2
20260503221536 73 230 0.0 4.0 0.00 0.00 0.00 18 1016.4
20260503220517 73 228 0.0 3.0 0.00 0.00 0.00 17 1016.6
20260503215515 73 160 0.0 2.0 0.00 0.00 0.00 18 1016.7
20260503214516 73 226 1.0 3.0 0.00 0.00 0.00 17 1016.9
20260503213515 74 64 1.0 4.0 0.00 0.00 0.00 18 1016.9
20260503212516 73 53 0.0 3.0 0.00 0.00 0.00 16 1017.2
20260503211536 74 110 0.0 1.0 0.00 0.00 0.00 17 1017.3
20260503210517 75 146 1.0 3.0 0.00 0.00 0.00 16 1017.4
20260503205537 74 265 0.0 2.0 0.00 0.00 0.00 17 1017.5
20260503204515 74 274 1.0 4.0 0.00 0.00 0.00 16 1017.8
20260503203515 75 38 2.0 9.0 0.00 0.00 0.00 17 1017.9
20260503202535 75 112 1.0 3.0 0.00 0.00 0.00 15 1018.1
20260503201536 75 120 1.0 4.0 0.00 0.00 0.00 16 1018.3
20260503200516 75 305 1.0 3.0 0.00 0.00 0.00 16 1018.5
20260503195517 75 301 1.0 7.0 0.00 0.00 0.00 16 1018.5
20260503194015 74 206 0.0 2.0 0.00 0.00 0.00 16 1018.7
20260503193015 72 130 1.0 3.0 0.00 0.00 0.00 16 1018.8
20260503192016 72 141 2.0 4.0 0.00 0.00 0.00 15 1018.9
20260503191056 73 134 1.0 3.0 0.00 0.00 0.00 17 1019.2
20260503190037 73 269 1.0 2.0 0.00 0.00 0.00 18 1019.5
20260503185017 71 52 1.0 5.0 0.00 0.00 0.00 20 1019.6
20260503184037 71 80 1.0 3.0 0.00 0.00 0.00 20 1019.8
20260503183015 70 214 1.0 2.0 0.00 0.00 0.00 21 1020.0
20260503182015 70 352 0.0 2.0 0.00 0.00 0.00 22 1020.1
20260503181015 69 80 0.0 2.0 0.00 0.00 0.00 23 1020.3
20260503180016 68 65 1.0 6.0 0.00 0.00 0.00 23 1020.3
20260503175016 67 250 1.0 3.0 0.00 0.00 0.00 24 1020.5
20260503174017 66 243 1.0 4.0 0.00 0.00 0.00 24 1020.7
20260503173037 66 257 3.0 8.0 0.00 0.00 0.00 24 1020.9
20260503172015 66 254 1.0 4.0 0.00 0.00 0.00 23 1021.1
20260503171015 66 234 2.0 6.0 0.00 0.00 0.00 23 1021.2